Location: *
(55.6049°S, 142.1985°W)
Time: 00:04:17
(UTC+00:00)

CZ-4 R/B - Pass Details

Date: 12 May 2021
Orbit: 531 x 597 km, 97.7° (Epoch: 23 June)

Event Time Altitude Azimuth Distance (km) Brightness Sun altitude
Rises 15:52:41 0° 15° (NNE) 2,749 5.3 -11.2°
Reaches altitude 10° 15:54:47 10° 14° (NNE) 1,872 4.5 -11.0°
Maximum altitude 15:58:51 85° 285° (WNW) 593 1.4 -10.4°
Drops below altitude 10° 16:03:05 10° 196° (SSW) 1,938 3.8 -9.8°
Sets 16:05:17 0° 195° (SSW) 2,857 4.6 -9.5°
